Location: Sternwarte_Laufen
(47.9344°N, 12.9346°E)
Time: 04:03:31
(UTC+02:00)

ISS - Pass Details

Date: 09 July 2025
Orbit: 413 x 417 km, 51.6° (Epoch: 12 July)

Event Time Altitude Azimuth Distance (km) Brightness Sun altitude
Rises 23:35:01 0° 260° (W) 2,349 0.2 -16.4°
Reaches altitude 10° 23:37:08 10° 265° (W) 1,488 -0.7 -16.6°
Maximum altitude 23:40:26 57° 345° (NNW) 498 -3.1 -16.8°
Drops below altitude 10° 23:43:45 10° 65° (ENE) 1,494 -0.9 -17.0°
Sets 23:45:52 0° 70° (ENE) 2,360 0.1 -17.1°
